User: anonymous   Login
Location: Unspecified
(0.0000°N, 0.0000°E)
Time: 09:19:08
(UTC+01:00)
Language:

CZ-2C R/B - Orbit

View from above orbital plane
View from above orbital plane
View from above satellite
View from above satellite

Ground track
Ground track

The orbit data is extracted from the following two-line orbital elements,

1 28480U 04046B   14304.00162572  .00000342  00000-0  14573-3 0  4763
2 28480 098.1079 089.6649 0142868 179.7949 289.7958 14.25367425517432
Epoch (UTC): 31 October 2014 00:02:20
Eccentricity: 0.0142868
inclination: 98.1079°
perigee height: 704 km
apogee height: 910 km
right ascension of ascending node: 89.6649°
argument of perigee: 179.7949°
revolutions per day: 14.25367425
mean anomaly at epoch: 289.7958°
orbit number at epoch: 51743

The dashed part of the orbit path shows where the satellite is in the earth's shadow,  

DLR